Location: Krakow
(50.0212°N, 19.9423°E)
Time: 04:00:54
(UTC+02:00)

UWE-3 - Pass Details

Date: 29 April 2024
Orbit: 569 x 652 km, 97.8° (Epoch: 23 May)

Event Time Altitude Azimuth Distance (km) Brightness Sun altitude
Rises 03:03:02 0° 17° (NNE) 2,880 ? -17.9°
Reaches altitude 10° 03:05:15 10° 21° (NNE) 1,984 ? -17.7°
Maximum altitude 03:09:30 56° 100° (E) 748 ? -17.3°
Enters shadow 03:12:16 21° 173° (S) 1,418 ? -17.0°
